Weather History for Traverse City, MI

Change the Weather History Date:

Friday, February 1, 2013

  Actual Average Record
Temperature  
Mean Temperature 14 °F 21 °F  
Max Temperature 17 °F 28 °F 45 °F (1998)
Min Temperature 10 °F 14 °F -26 °F (1918)
Degree Days  
Heating Degree Days 51 44  
Month to date heating degree days 51 44  
Since 1 July heating degree days 3730 4200  
Moisture  
Dew Point 7 °F    
Average Humidity 75    
Maximum Humidity 83    
Minimum Humidity 67    
Precipitation  
Precipitation T in 0.06 in 0.47 in (1976)
Month to date precipitation T 0.06  
Year to date precipitation 2.22 2.88  
Snow  
Snow 0.00 in - - ()
Snow Depth 8.00 in    
Sea Level Pressure  
Sea Level Pressure 30.07 in    
Wind  
Wind Speed 10 mph (West)    
Max Wind Speed 18 mph    
Max Gust Speed 24 mph    
Visibility 3 miles    
Events Snow    
T = Trace of Precipitation, MM = Missing Value Source: NWS Daily Summary

Daily Weather History Graph

Daily Weather History Graph

Search for Another Location

Airport:

Trip Planner

Search our weather history database for the weather conditions in past years. The results will help you decide how hot, cold, wet, or windy it might be!

Date:

Astronomy

Feb. 01, 2013 Rise Set
Actual Time 8:01 AM EST 5:51 PM EST
Civil Twilight 7:30 AM EST 6:22 PM EST
Nautical Twilight 6:55 AM EST 6:57 PM EST
Astronomical Twilight 6:20 AM EST 7:31 PM EST
Moon No Moon Rise 10:17 AM EST (2/1)
Length of Visible Light 10h 52m
Length of Day
9h 50m
Waning Gibbous, 70% of the Moon is Illuminated
Feb 1
Waning Gibbous
Feb 3
Last Quarter
Feb 10
New
Feb 17
First Quarter
Feb 25
Full

Hourly Weather History & Observations

Time (EST) Temp. Windchill Dew Point Humidity Pressure Visibility Wind Dir Wind Speed Gust Speed Precip Events Conditions
12:53 AM 17.1 °F 4.3 °F 9.0 °F 71% 29.91 in 3.0 mi WNW 11.5 mph - 0.00 in Snow Light Snow
1:03 AM 17.6 °F 3.7 °F 10.4 °F 73% 29.88 in 2.5 mi WNW 13.8 mph - 0.00 in Snow Light Snow
1:12 AM 17.6 °F 5.7 °F 8.6 °F 68% 29.88 in 4.0 mi NW 10.4 mph - 0.00 in Snow Light Snow
1:53 AM 17.1 °F 3.0 °F 9.0 °F 71% 29.93 in 5.0 mi WNW 13.8 mph - 0.00 in Snow Light Snow
2:53 AM 16.0 °F 0.1 °F 10.0 °F 77% 29.95 in 4.0 mi WNW 17.3 mph - 0.00 in Snow Light Snow
3:38 AM 15.8 °F 1.4 °F 10.4 °F 79% 29.93 in 2.5 mi WNW 13.8 mph 20.7 mph 0.00 in Snow Light Snow
3:53 AM 16.0 °F 1.7 °F 10.0 °F 77% 29.97 in 2.5 mi WNW 13.8 mph - 0.00 in Snow Light Snow
4:00 AM 15.8 °F -0.2 °F 10.4 °F 79% 29.94 in 4.0 mi West 17.3 mph 23.0 mph 0.00 in Snow Light Snow
4:14 AM 15.8 °F 0.9 °F 8.6 °F 73% 29.95 in 2.5 mi West 15.0 mph - 0.00 in Snow Light Snow
4:24 AM 15.8 °F 1.4 °F 10.4 °F 79% 29.95 in 3.0 mi West 13.8 mph - 0.00 in Snow Light Snow
4:31 AM 15.8 °F 2.1 °F 10.4 °F 79% 29.95 in 2.0 mi West 12.7 mph - 0.00 in Snow Light Snow
4:53 AM 16.0 °F 1.1 °F 9.0 °F 74% 30.00 in 4.0 mi West 15.0 mph - 0.00 in Snow Light Snow
5:23 AM 15.8 °F 1.4 °F 8.6 °F 73% 29.98 in 1.8 mi WNW 13.8 mph - 0.00 in Snow Light Snow
5:32 AM 15.8 °F 3.4 °F 8.6 °F 73% 29.98 in 2.0 mi West 10.4 mph - 0.00 in Snow Light Snow
5:37 AM 15.8 °F 4.2 °F 8.6 °F 73% 29.99 in 3.0 mi West 9.2 mph - 0.00 in Snow Light Snow
5:53 AM 16.0 °F 1.7 °F 9.0 °F 74% 30.03 in 2.5 mi WNW 13.8 mph - 0.00 in Snow Light Snow
6:10 AM 15.8 °F 3.4 °F 8.6 °F 73% 30.00 in 3.0 mi West 10.4 mph - 0.00 in Snow Light Snow
6:53 AM 15.1 °F 1.8 °F 8.1 °F 74% 30.06 in 4.0 mi West 11.5 mph - 0.00 in Snow Light Snow
7:53 AM 15.1 °F 1.1 °F 7.0 °F 70% 30.09 in 4.0 mi West 12.7 mph - 0.00 in Snow Light Snow
8:53 AM 14.0 °F -0.8 °F 8.1 °F 77% 30.12 in 2.0 mi West 13.8 mph - 0.00 in Snow Light Snow
9:53 AM 14.0 °F 0.5 °F 8.1 °F 77% 30.14 in 2.0 mi West 11.5 mph - 0.00 in Snow Light Snow
10:53 AM 14.0 °F 2.0 °F 8.1 °F 77% 30.16 in 2.0 mi West 9.2 mph - 0.00 in Snow Light Snow
11:53 AM 15.1 °F 3.3 °F 7.0 °F 70% 30.16 in 2.0 mi West 9.2 mph - 0.00 in Snow Light Snow
12:09 PM 15.8 °F 5.1 °F 6.8 °F 68% 30.12 in 3.0 mi West 8.1 mph - 0.00 in Snow Light Snow
12:20 PM 15.8 °F 6.1 °F 8.6 °F 73% 30.12 in 3.0 mi West 6.9 mph - 0.00 in Snow Light Snow
12:33 PM 15.8 °F 5.1 °F 8.6 °F 73% 30.12 in 1.5 mi West 8.1 mph - 0.00 in Snow Light Snow
12:53 PM 15.1 °F 2.5 °F 9.0 °F 77% 30.16 in 1.0 mi WSW 10.4 mph - 0.00 in Snow Light Snow
1:01 PM 15.8 °F 2.1 °F 6.8 °F 68% 30.12 in 3.0 mi WSW 12.7 mph - 0.00 in Snow Light Snow
1:24 PM 15.8 °F 3.4 °F 6.8 °F 68% 30.11 in 2.0 mi WSW 10.4 mph - 0.00 in Snow Light Snow
1:45 PM 15.8 °F 5.1 °F 6.8 °F 68% 30.11 in 4.0 mi WSW 8.1 mph - 0.00 in Snow Light Snow
1:53 PM 15.1 °F 1.8 °F 7.0 °F 70% 30.15 in 4.0 mi WSW 11.5 mph 18.4 mph 0.00 in Snow Light Snow
2:23 PM 15.8 °F 0.3 °F 6.8 °F 68% 30.11 in 1.0 mi West 16.1 mph 23.0 mph 0.00 in Snow Light Snow
2:28 PM 15.8 °F 2.7 °F 8.6 °F 73% 30.11 in 3.0 mi West 11.5 mph 23.0 mph 0.00 in Snow Light Snow
3:51 PM 14.0 °F 2.9 °F 6.8 °F 73% 30.11 in 2.0 mi WSW 8.1 mph - 0.00 in Snow Light Snow
3:53 PM 14.0 °F 2.9 °F 6.1 °F 71% 30.15 in 2.0 mi West 8.1 mph - 0.00 in Snow Light Snow
4:12 PM 14.0 °F 3.9 °F 3.2 °F 62% 30.11 in 5.0 mi WSW 6.9 mph - 0.00 in Snow Light Snow
4:33 PM 14.0 °F 2.0 °F 5.0 °F 67% 30.11 in 5.0 mi WSW 9.2 mph 18.4 mph 0.00 in Snow Light Snow
4:53 PM 12.9 °F 3.8 °F 3.9 °F 67% 30.15 in 3.0 mi WSW 5.8 mph - 0.00 in Snow Light Snow
5:18 PM 12.2 °F 1.7 °F 5.0 °F 73% 30.11 in 4.0 mi Variable 6.9 mph - 0.00 in Snow Light Snow
5:53 PM 12.9 °F 0.7 °F 5.0 °F 71% 30.14 in 3.0 mi SSW 9.2 mph - 0.00 in Snow Light Snow
6:11 PM 12.2 °F 1.7 °F 5.0 °F 73% 30.10 in 2.0 mi SW 6.9 mph - 0.00 in Snow Light Snow
6:34 PM 12.2 °F 0.7 °F 5.0 °F 73% 30.10 in 3.0 mi SSW 8.1 mph - 0.00 in Snow Light Snow
6:53 PM 12.0 °F 4.1 °F 5.0 °F 73% 30.14 in 3.0 mi SSW 4.6 mph - 0.00 in Snow Light Snow
7:53 PM 10.9 °F 2.9 °F 6.1 °F 81% 30.14 in 3.0 mi SSW 4.6 mph - 0.00 in Snow Light Snow
8:01 PM 10.4 °F 4.0 °F 6.8 °F 85% 30.10 in 2.0 mi SSW 3.5 mph - 0.00 in Snow Light Snow
8:53 PM 10.9 °F 0.2 °F 6.1 °F 81% 30.14 in 2.0 mi SW 6.9 mph - 0.00 in Snow Light Snow
9:16 PM 10.4 °F -0.4 °F 5.0 °F 79% 30.09 in 1.5 mi SW 6.9 mph - 0.00 in Snow Light Snow
9:53 PM 10.9 °F 2.9 °F 6.1 °F 81% 30.13 in 2.0 mi SW 4.6 mph - 0.00 in Snow Light Snow
10:03 PM 10.4 °F 2.2 °F 6.8 °F 85% 30.09 in 1.8 mi SW 4.6 mph - 0.00 in Snow Light Snow
10:32 PM 10.4 °F 2.2 °F 5.0 °F 79% 30.09 in 2.0 mi WSW 4.6 mph - 0.00 in Snow Light Snow
10:53 PM 10.9 °F -0.8 °F 5.0 °F 77% 30.13 in 2.0 mi West 8.1 mph - 0.00 in Snow Light Snow
11:01 PM 10.4 °F -3.3 °F 5.0 °F 79% 30.09 in 1.5 mi West 10.4 mph - 0.00 in Snow Light Snow
11:08 PM 10.4 °F -3.3 °F 3.2 °F 73% 30.09 in 3.0 mi West 10.4 mph - 0.00 in Snow Light Snow
11:19 PM 10.4 °F -4.8 °F 3.2 °F 73% 30.09 in 5.0 mi WSW 12.7 mph - 0.00 in Snow Light Snow
11:53 PM 10.0 °F -1.9 °F 3.0 °F 73% 30.13 in 9.0 mi West 8.1 mph - 0.00 in   Overcast